CYGFM04

Last updated on Sun Jun 21 2026 00:02:47 GMT+0000 (Coordinated Universal Time)

1 41885U 16078B 26171.41040240 .00025123 00000+0 28119-3 0 9996 2 41885 34.9311 206.7708 0007079 223.5840 136.4326 15.61665288529500
UTC large
Height (km)
Speed (km/s)
/
Latitude / Longitude
Inclination (degrees)
Orbital Period (minutes)
Azimuth
Elevation
Range (km)
Doppler Factor

Next 0 passes for location: London (51.5072 / 0.1276)

No passes found over London.
CYGFM04